Regional Weather Roundup
Issued by NWS Newport/Morehead, NC

Home | Current Version | Previous Version | Text Only | Print | Product List | Glossary On
Versions: 1 2 3 4 5 6 7 8 9 10 11 12 13 14 15 16 17 18 19 20 21 22 23 24 25 26 27 28 29 30 31 32 33 34 35 36 37 38 39 40 41 42 43 44 45 46 47 48 49 50
000
ASUS42 KMHX 262222
RWRMHX
WEATHER ROUNDUP FOR EASTERN NORTH CAROLINA
NATIONAL WEATHER SERVICE NEWPORT/MOREHEAD CITY NC
500 PM EST FRI DEC 26 2014

NOTE: "FAIR" INDICATES FEW OR NO CLOUDS BELOW 12,000 FEET
WITH NO SIGNIFICANT WEATHER AND/OR OBSTRUCTIONS TO VISIBILITY

NCZ015>017-031-032-045>047-102-103-262300-
NORTH COAST

CITY           SKY/WX    TMP DP  RH WIND       PRES   REMARKS
EDENTON        CLEAR     48  39  72 CALM      30.29R
ELIZABETH CITY CLEAR     54  35  48 W3        30.28S
KITTY HAWK     CLEAR     48  39  71 CALM      30.27S
MANTEO         CLEAR     48  37  66 CALM      30.29S

$$

NCZ045>047-081-094-103-104-262300-
CENTRAL COAST

CITY           SKY/WX    TMP DP  RH WIND       PRES   REMARKS
FRISCO         CLEAR     50  40  68 NW3       30.28S
SWANQUARTER      N/A     50 N/A N/A SW2       30.27R

$$

NCZ095-097-098-100-101-262300-
SOUTHERN COAST

CITY           SKY/WX    TMP DP  RH WIND       PRES   REMARKS
BEAUFORT       CLEAR     54  38  54 NE3       30.30R
CEDAR ISLAND     N/A     50 N/A N/A N2        30.33S
JACKSONVILLE   CLEAR     56  37  49 NW6       30.29R
PINEY ISLAND   CLEAR     54  41  61 NE5       30.29R
WILMINGTON     CLEAR     56  42  59 CALM      30.29R


$$

NCZ011>013-027>030-043-044-078>080-089-090>093-098-262300-
COASTAL PLAIN

CITY           SKY/WX    TMP DP  RH WIND       PRES   REMARKS
AHOSKIE        CLEAR     49  37  63 CALM      30.30R
CLINTON        CLEAR     51  41  70 CALM      30.30S
ELIZABETHTOWN  CLEAR     53  41  63 CALM      30.29S
GOLDSBORO      CLEAR     54  41  62 W3        30.28R
GREENVILLE     CLEAR     55  36  47 CALM      30.30R
HAVELOCK       PTCLDY    52  39  61 CALM      30.31R
KENANSVILLE    CLEAR     49  38  66 CALM      30.31S
KINSTON        CLEAR     52  39  62 CALM      30.31R
NEW BERN       CLEAR     55  38  52 CALM      30.31R
RICHLANDS      CLEAR     48  39  71 CALM      30.30S
ROCKY MOUNT    CLEAR     51  37  58 CALM      30.30R
WASHINGTON     CLEAR     50  37  60 CALM      30.31R
WHITEVILLE     CLEAR     54  38  56 CALM      30.29R

$$

AMZ130-135-150-152-154-156-158-170-250-252-270-ANZ085-086-088-633-658-670-262300-
MARINE OBSERVATIONS

STATION/POSITION TIME  TEMP    WIND        PRES    WAVE   SWELL
                       AIR SEA DIR/SP/G            HT/PER HT/PER
                 (UTC) (F)     (DEG/KT/KT) (MB)    (FT/S) (FT/S)
CHESAPEAKE LIGHT 2200   48      70/  6/  6 1026.2
64 E VA BEACH    2200   50 52   20/  2/  4 1025.1    3/13   2/13
DUCK             2200   51 51  270/  5/  6 1024.6
2 E DUCK         2200      50                N/A     2/13   2/13
10 NE DUCK       2200      51                N/A     2/13   2/13
OREGON INLET     2200   52 53     CALM     1025.5
13E OREGON INLT  2200      51                N/A     2/14   2/14
HATTERAS CG      2200   53 56  310/  8/  9 1025.7
DIAMOND BUOY     2200   57                 1025.7    3/ 8
17 S OCRACOKE    NOT AVBL
CAPE LOOKOUT     2200   56      10/  2/  2 1025.9
BEAUFORT LAB     2200   56 55   40/  2/  3 1025.0
30 SE NEW RIVER  2200   57 61  360/  6/  6 1026.6    2/ 7   2/ 7
5 SE WRIGHTSVLE  NOT AVBL
225 S CAPE HAT   2056   67 74   40/  6/  8 1025.2    3/ 9   3/ 9
41 SE CHARLESTON 2200   62 72   20/ 12/ 16 1025.0    3/ 7   2/ 7

$$


USA.gov is the U.S. government's official web portal to all federal, state and local government web resources and services.